Regional Weather Roundup
Issued by NWS

Home | Current Version | Previous Version | Graphics & Text | Print | Product List | Glossary On
Versions: 1 2 3 4 5 6 7 8 9 10 11 12 13 14 15 16 17 18 19 20 21 22 23 24 25 26 27 28 29 30 31 32 33 34 35 36 37 38 39 40 41 42 43 44 45 46 47 48 49 50
000
ASUS43 KFSD 212302
RWRSD

WEATHER ROUNDUP FOR SOUTH DAKOTA
NATIONAL WEATHER SERVICE SIOUX FALLS SD
500 PM CST SAT JAN 21 2017

NOTE: "FAIR" INDICATES FEW OR NO CLOUDS BELOW 12,000 FEET WITH NO
SIGNIFICANT WEATHER AND/OR OBSTRUCTIONS TO VISIBILITY.


SDZ001>005-009-010-012>017-220000-
NORTHWEST AND NORTH CENTRAL SOUTH DAKOTA

CITY           SKY/WX    TMP DP  RH WIND       PRES   REMARKS
BUFFALO          N/A     35  28  75 NW12      29.40R WCI  27
FAITH            N/A     30  27  88 W14       29.46R WCI  19
MOBRIDGE       FOG       28  24  85 W7        29.44R VSB 1   WCI  21
$$

SDZ012>016-024>037-041>051-057-063-072>074-220000-
SOUTHWEST AND SOUTH CENTRAL SOUTH DAKOTA

CITY           SKY/WX    TMP DP  RH WIND       PRES   REMARKS
RAPID CTY ARPT CLEAR     38  28  67 N12       29.47R
PIERRE         CLEAR     29  25  85 W5        29.47R WCI  24
CUSTER         CLEAR     32  27  81 E10       29.43R WCI  24
ELLSWORTH AFB  CLEAR     37  30  75 N9        29.47R
PHILIP         CLEAR     38  32  79 W8        29.48R
PINE RIDGE     CLEAR     34  28  79 W6        29.48R WCI  29
SPEARFISH      FAIR      37  25  60 NW5       29.48R
WINNER         FAIR      43  32  65 NW13      29.47R
$$

SDZ004>011-016>023-039-040-220000-
NORTHEAST SOUTH DAKOTA

CITY           SKY/WX    TMP DP  RH WIND       PRES   REMARKS
ABERDEEN       CLOUDY    32  27  81 SW3       29.46R
WATERTOWN      CLOUDY    31  31 100 W9        29.42R FOG     WCI  23
BROOKINGS      CLOUDY    31  30  96 W9        29.43R WCI  23
SISSETON         N/A     34  34 100 CALM      29.44R
$$

SDZ017-020-022-023-036>040-048>070-220000-
SOUTHEAST SOUTH DAKOTA

CITY           SKY/WX    TMP DP  RH WIND       PRES   REMARKS
SIOUX FALLS    CLOUDY    32  29  88 W9        29.46R WCI  24
HURON          CLOUDY    31  28  89 NW10      29.47R WCI  22
CHAMBERLAIN    CLEAR     37  32  83 W5        29.47R
MITCHELL       CLOUDY    33  30  88 W8        29.49R WCI  26
YANKTON        CLEAR     36  28  75 NW8       29.46R
$$

ABBREVIATIONS USED IN REMARKS
   TC - TEMPERATURE IN CELSIUS
  WCI - WIND CHILL INDEX
   HX - HEAT INDEX
  VSB - VISIBILITY





USA.gov is the U.S. government's official web portal to all federal, state and local government web resources and services.